Flag for Switzerland Weather past 2 weeks in Köniz, Bern, Switzerland

52 °F

Passing clouds.

Feels Like: 51 °F
Forecast: 39 / 57 °F
Wind: 5 mph from East

Location: Bern / Belp

Current Time: Oct 7, 2015 at 9:45:46 PM

Latest Report: Oct 7, 2015 at 9:20 PM

Visibility: N/A

Pressure: 30.09 "Hg (28.07 "Hg at 579m altitude)

Humidity: 94%

Dew point: 50 °F

Location of KönizLocation

Historic Weather in Köniz — Graph


Köniz temperature yesterday

Maximum temperature yesterday: 61 °F (at 12:50 PM)
Minimum temperature yesterday: 52 °F (at 10:50 PM)
Average temperature yesterday: 56 °F

Past Weeks' High & Low Weather Summary

High68 °F (Oct 5, 2:50 PM)100% (Sep 23, 12:50 AM)30.39 "Hg (Sep 23, 12:50 AM)
Low34 °F (Sep 29, 7:20 AM)49% (Sep 24, 4:20 PM)29.68 "Hg (Sep 22, 8:20 PM)
Average52 °F85%30.11 "Hg
* Reported Sep 22 8:20 PM — Oct 7 8:20 PM, Köniz, Weather by CustomWeather, © 2015

Note: Actual official high and low records may vary slightly from our data, if they occured in-between our weather recording intervals... More about our weather records


Köniz weather history for previous 24 hours

Time TempWeatherWind HumidityBarometerVisibility
8:20 PM
Wed, Oct 7
54 °FPassing clouds.5 mph88%30.09 "HgN/A
7:50 PM54 °FPartly sunny.5 mph88%30.07 "HgN/A
7:20 PM54 °FPartly sunny.3 mph88%30.07 "HgN/A
6:50 PM55 °FPartly sunny.3 mph77%30.07 "HgN/A
6:20 PM55 °FPartly sunny.5 mph77%30.04 "HgN/A
5:50 PM55 °FPartly sunny.2 mph77%30.04 "HgN/A
5:20 PM57 °FPartly sunny.2 mph72%30.04 "HgN/A
4:50 PM57 °FPartly sunny.3 mph72%30.04 "HgN/A
4:20 PM57 °FPartly sunny.7 mph72%30.04 "HgN/A
3:50 PM57 °FBroken clouds.9 mph72%30.04 "HgN/A
3:20 PM57 °FBroken clouds.7 mph77%30.04 "HgN/A
2:50 PM59 °FBroken clouds.9 mph68%30.04 "HgN/A
2:20 PM59 °FBroken clouds.7 mph77%30.01 "HgN/A
1:50 PM57 °FBroken clouds.6 mph77%30.01 "HgN/A
1:20 PM59 °FBroken clouds.8 mph77%30.01 "HgN/A
12:50 PM57 °FBroken clouds.5 mph82%30.01 "HgN/A
12:20 PM57 °FBroken clouds.7 mph88%30.01 "HgN/A
11:50 AM55 °FSprinkles. Broken clouds.6 mph88%30.01 "HgN/A
11:20 AM57 °FPartly sunny.3 mph82%30.01 "HgN/A
10:50 AM55 °FBroken clouds.6 mph94%29.98 "HgN/A
10:20 AM55 °FBroken clouds.5 mph94%29.98 "HgN/A
9:50 AM55 °FPartly sunny.2 mph100%29.98 "HgN/A
9:20 AM55 °FPartly sunny.2 mph100%29.98 "HgN/A
8:50 AM54 °FPartly sunny.3 mph100%29.95 "HgN/A
8:20 AM54 °FPartly cloudy.3 mph100%29.95 "HgN/A
7:50 AM54 °FSnow. Partly cloudy.7 mph100%29.95 "HgN/A
7:20 AM54 °FSnow. Partly cloudy.3 mph100%29.92 "HgN/A
6:50 AM54 °FRain. Fog.3 mph100%29.92 "Hg2 mi
6:20 AM54 °FPassing clouds.2 mph100%29.92 "HgN/A
5:50 AM54 °FPartly cloudy.3 mph100%29.92 "HgN/A
5:20 AM54 °FLight rain. Partly cloudy.2 mph100%29.92 "HgN/A
4:50 AM54 °FSprinkles. Partly cloudy.3 mph100%29.92 "HgN/A
4:20 AM54 °FPartly cloudy.5 mph100%29.89 "HgN/A
3:50 AM54 °FLight rain. Partly cloudy.5 mph100%29.89 "HgN/A
3:20 AM54 °FLight rain. Passing clouds.2 mph100%29.92 "HgN/A
2:50 AM54 °FPassing clouds.2 mph100%29.89 "HgN/A
2:20 AM54 °FOvercast.7 mph100%29.89 "HgN/A
1:50 AM54 °FPartly cloudy.5 mph100%29.89 "HgN/A
1:20 AM54 °FPassing clouds.5 mph100%29.89 "HgN/A
12:50 AM54 °FOvercast.2 mph100%29.89 "HgN/A
12:20 AM52 °FPassing clouds.2 mph100%29.89 "HgN/A
11:20 PM
Tue, Oct 6
54 °FMostly cloudy.2 mph100%29.86 "HgN/A
10:50 PM52 °FFog.1 mph100%29.86 "Hg1 mi
10:20 PM54 °FPassing clouds.1 mph100%29.86 "Hg4 mi
9:50 PM54 °FPassing clouds.2 mph100%29.86 "HgN/A
9:20 PM55 °FPassing clouds.2 mph100%29.86 "HgN/A
Weather by CustomWeather, © 2015

See weather overviewHow to use our weather pages